Terminal Aerodrome Forecast
Issued by NWS

Home | Current Version | Previous Version | Text Only | Print | Product List | Glossary On
Versions: 1 2 3 4 5 6 7 8 9 10 11 12 13 14 15 16 17 18 19 20 21 22 23 24 25
000
FTUS46 KOTX 040225 AAA
TAFCOE
TAF AMD
KCOE 040225Z 0402/0424 21011KT P6SM BKN150 OVC200
     FM040600 19006KT P6SM BKN120 OVC200
     FM041900 21010G18KT P6SM FEW250
      AMD LTD TO CLD AND VIS=

USA.gov is the U.S. government's official web portal to all federal, state and local government web resources and services.